#datetime,building,power
2022-04-14T00:00:00,sdl,10.11
2022-04-14T00:01:00,sdl,10.08
2022-04-14T00:02:00,sdl,10.72
2022-04-14T00:03:00,sdl,10.20
2022-04-14T00:04:00,sdl,10.14
2022-04-14T00:05:00,sdl,10.11
2022-04-14T00:06:00,sdl,10.07
2022-04-14T00:07:00,sdl,9.82
2022-04-14T00:08:00,sdl,9.87
2022-04-14T00:09:00,sdl,9.78
2022-04-14T00:10:00,sdl,9.79
2022-04-14T00:11:00,sdl,9.77
2022-04-14T00:12:00,sdl,10.24
2022-04-14T00:13:00,sdl,10.29
2022-04-14T00:14:00,sdl,10.29
2022-04-14T00:15:00,sdl,10.36
2022-04-14T00:16:00,sdl,10.80
2022-04-14T00:17:00,sdl,10.96
2022-04-14T00:18:00,sdl,10.47
2022-04-14T00:19:00,sdl,10.45
2022-04-14T00:20:00,sdl,10.50
2022-04-14T00:21:00,sdl,10.39
2022-04-14T00:22:00,sdl,10.41
2022-04-14T00:23:00,sdl,11.61
2022-04-14T00:24:00,sdl,9.93
2022-04-14T00:25:00,sdl,9.79
2022-04-14T00:26:00,sdl,9.96
2022-04-14T00:27:00,sdl,10.04
2022-04-14T00:28:00,sdl,10.05
2022-04-14T00:29:00,sdl,10.43
2022-04-14T00:30:00,sdl,10.48
2022-04-14T00:31:00,sdl,10.48
2022-04-14T00:32:00,sdl,10.61
2022-04-14T00:33:00,sdl,10.52
2022-04-14T00:34:00,sdl,10.40
2022-04-14T00:35:00,sdl,10.36
2022-04-14T00:36:00,sdl,10.38
2022-04-14T00:37:00,sdl,10.34
2022-04-14T00:38:00,sdl,10.31
2022-04-14T00:39:00,sdl,10.38
2022-04-14T00:40:00,sdl,9.95
2022-04-14T00:41:00,sdl,10.01
2022-04-14T00:42:00,sdl,9.99
2022-04-14T00:43:00,sdl,10.56
2022-04-14T00:44:00,sdl,10.07
2022-04-14T00:45:00,sdl,12.66
2022-04-14T00:46:00,sdl,12.51
2022-04-14T00:47:00,sdl,12.48
2022-04-14T00:48:00,sdl,12.90
2022-04-14T00:49:00,sdl,12.87
2022-04-14T00:50:00,sdl,12.87
2022-04-14T00:51:00,sdl,12.57
2022-04-14T00:52:00,sdl,12.68
2022-04-14T00:53:00,sdl,12.62
2022-04-14T00:54:00,sdl,12.59
2022-04-14T00:55:00,sdl,12.57
2022-04-14T00:56:00,sdl,12.60
2022-04-14T00:57:00,sdl,12.05
2022-04-14T00:58:00,sdl,11.97
2022-04-14T00:59:00,sdl,9.71
2022-04-14T01:00:00,sdl,9.58
2022-04-14T01:01:00,sdl,9.41
2022-04-14T01:02:00,sdl,10.37
2022-04-14T01:03:00,sdl,9.99
2022-04-14T01:04:00,sdl,9.91
2022-04-14T01:05:00,sdl,9.92
2022-04-14T01:06:00,sdl,9.87
2022-04-14T01:07:00,sdl,9.85
2022-04-14T01:08:00,sdl,9.85
2022-04-14T01:09:00,sdl,9.76
2022-04-14T01:10:00,sdl,9.77
2022-04-14T01:11:00,sdl,9.79
2022-04-14T01:12:00,sdl,9.77
2022-04-14T01:13:00,sdl,9.37
2022-04-14T01:14:00,sdl,9.37
2022-04-14T01:15:00,sdl,9.35
2022-04-14T01:16:00,sdl,11.74
2022-04-14T01:17:00,sdl,11.68
2022-04-14T01:18:00,sdl,11.67
2022-04-14T01:19:00,sdl,12.30
2022-04-14T01:20:00,sdl,12.25
2022-04-14T01:21:00,sdl,12.18
2022-04-14T01:22:00,sdl,12.67
2022-04-14T01:23:00,sdl,12.13
2022-04-14T01:24:00,sdl,12.04
2022-04-14T01:25:00,sdl,12.04
2022-04-14T01:26:00,sdl,9.94
2022-04-14T01:27:00,sdl,10.09
2022-04-14T01:28:00,sdl,10.60
2022-04-14T01:29:00,sdl,10.49
2022-04-14T01:30:00,sdl,9.69
2022-04-14T01:31:00,sdl,9.69
2022-04-14T01:32:00,sdl,9.76
2022-04-14T01:33:00,sdl,9.71
2022-04-14T01:34:00,sdl,9.72
2022-04-14T01:35:00,sdl,9.97
2022-04-14T01:36:00,sdl,9.92
2022-04-14T01:37:00,sdl,9.89
2022-04-14T01:38:00,sdl,9.86
2022-04-14T01:39:00,sdl,9.83
2022-04-14T01:40:00,sdl,9.89
2022-04-14T01:41:00,sdl,9.89
2022-04-14T01:42:00,sdl,10.10
2022-04-14T01:43:00,sdl,11.11
2022-04-14T01:44:00,sdl,9.87
2022-04-14T01:45:00,sdl,9.93
2022-04-14T01:46:00,sdl,9.85
2022-04-14T01:47:00,sdl,9.61
2022-04-14T01:48:00,sdl,9.55
2022-04-14T01:49:00,sdl,9.54
2022-04-14T01:50:00,sdl,9.61
2022-04-14T01:51:00,sdl,9.59
2022-04-14T01:52:00,sdl,10.07
2022-04-14T01:53:00,sdl,10.08
2022-04-14T01:54:00,sdl,10.10
2022-04-14T01:55:00,sdl,10.02
2022-04-14T01:56:00,sdl,10.05
2022-04-14T01:57:00,sdl,10.09
2022-04-14T01:58:00,sdl,10.01
2022-04-14T01:59:00,sdl,12.65
2022-04-14T02:00:00,sdl,12.61
2022-04-14T02:01:00,sdl,16.60
2022-04-14T02:02:00,sdl,16.70
2022-04-14T02:03:00,sdl,17.14
2022-04-14T02:04:00,sdl,16.38
2022-04-14T02:05:00,sdl,16.35
2022-04-14T02:06:00,sdl,16.48
2022-04-14T02:07:00,sdl,16.37
2022-04-14T02:08:00,sdl,16.62
2022-04-14T02:09:00,sdl,16.44
2022-04-14T02:10:00,sdl,16.18
2022-04-14T02:11:00,sdl,16.12
2022-04-14T02:12:00,sdl,13.91
2022-04-14T02:13:00,sdl,13.84
2022-04-14T02:14:00,sdl,13.84
2022-04-14T02:15:00,sdl,13.79
2022-04-14T02:16:00,sdl,13.87
2022-04-14T02:17:00,sdl,13.91
2022-04-14T02:18:00,sdl,13.92
2022-04-14T02:19:00,sdl,13.89
2022-04-14T02:20:00,sdl,13.75
2022-04-14T02:21:00,sdl,13.93
2022-04-14T02:22:00,sdl,14.51
2022-04-14T02:23:00,sdl,13.86
2022-04-14T02:24:00,sdl,13.87
2022-04-14T02:25:00,sdl,13.84
2022-04-14T02:26:00,sdl,13.80
2022-04-14T02:27:00,sdl,13.88
2022-04-14T02:28:00,sdl,13.86
2022-04-14T02:29:00,sdl,14.53
2022-04-14T02:30:00,sdl,14.00
2022-04-14T02:31:00,sdl,13.87
2022-04-14T02:32:00,sdl,14.20
2022-04-14T02:33:00,sdl,14.24
2022-04-14T02:34:00,sdl,14.29
2022-04-14T02:35:00,sdl,13.78
2022-04-14T02:36:00,sdl,13.74
2022-04-14T02:37:00,sdl,13.81
2022-04-14T02:38:00,sdl,13.96
2022-04-14T02:39:00,sdl,13.92
2022-04-14T02:40:00,sdl,13.83
2022-04-14T02:41:00,sdl,13.99
2022-04-14T02:42:00,sdl,15.56
2022-04-14T02:43:00,sdl,13.96
2022-04-14T02:44:00,sdl,13.97
2022-04-14T02:45:00,sdl,13.80
2022-04-14T02:46:00,sdl,13.86
2022-04-14T02:47:00,sdl,13.84
2022-04-14T02:48:00,sdl,14.29
2022-04-14T02:49:00,sdl,13.79
2022-04-14T02:50:00,sdl,16.54
2022-04-14T02:51:00,sdl,16.14
2022-04-14T02:52:00,sdl,16.21
2022-04-14T02:53:00,sdl,16.20
2022-04-14T02:54:00,sdl,16.78
2022-04-14T02:55:00,sdl,16.72
2022-04-14T02:56:00,sdl,16.04
2022-04-14T02:57:00,sdl,16.04
2022-04-14T02:58:00,sdl,16.07
2022-04-14T02:59:00,sdl,16.11
2022-04-14T03:00:00,sdl,16.11
2022-04-14T03:01:00,sdl,16.17
2022-04-14T03:02:00,sdl,17.68
2022-04-14T03:03:00,sdl,17.46
2022-04-14T03:04:00,sdl,17.08
2022-04-14T03:05:00,sdl,16.70
2022-04-14T03:06:00,sdl,17.34
2022-04-14T03:07:00,sdl,16.67
2022-04-14T03:08:00,sdl,15.01
2022-04-14T03:09:00,sdl,14.85
2022-04-14T03:10:00,sdl,14.46
2022-04-14T03:11:00,sdl,14.61
2022-04-14T03:12:00,sdl,16.34
2022-04-14T03:13:00,sdl,15.14
2022-04-14T03:14:00,sdl,14.49
2022-04-14T03:15:00,sdl,14.46
2022-04-14T03:16:00,sdl,14.41
2022-04-14T03:17:00,sdl,14.36
2022-04-14T03:18:00,sdl,14.46
2022-04-14T03:19:00,sdl,14.41
2022-04-14T03:20:00,sdl,14.37
2022-04-14T03:21:00,sdl,14.32
2022-04-14T03:22:00,sdl,15.50
2022-04-14T03:23:00,sdl,14.46
2022-04-14T03:24:00,sdl,14.46
2022-04-14T03:25:00,sdl,14.58
2022-04-14T03:26:00,sdl,14.55
2022-04-14T03:27:00,sdl,14.67
2022-04-14T03:28:00,sdl,15.05
2022-04-14T03:29:00,sdl,14.56
2022-04-14T03:30:00,sdl,14.57
2022-04-14T03:31:00,sdl,14.84
2022-04-14T03:32:00,sdl,14.64
2022-04-14T03:33:00,sdl,14.96
2022-04-14T03:34:00,sdl,15.33
2022-04-14T03:35:00,sdl,14.58
2022-04-14T03:36:00,sdl,14.49
2022-04-14T03:37:00,sdl,14.49
2022-04-14T03:38:00,sdl,14.50
2022-04-14T03:39:00,sdl,14.55
2022-04-14T03:40:00,sdl,14.49
2022-04-14T03:41:00,sdl,14.49
2022-04-14T03:42:00,sdl,14.28
2022-04-14T03:43:00,sdl,14.18
2022-04-14T03:44:00,sdl,14.15
2022-04-14T03:45:00,sdl,14.13
2022-04-14T03:46:00,sdl,14.32
2022-04-14T03:47:00,sdl,14.18
2022-04-14T03:48:00,sdl,14.80
2022-04-14T03:49:00,sdl,16.45
2022-04-14T03:50:00,sdl,16.41
2022-04-14T03:51:00,sdl,16.42
2022-04-14T03:52:00,sdl,16.40
2022-04-14T03:53:00,sdl,16.36
2022-04-14T03:54:00,sdl,16.48
2022-04-14T03:55:00,sdl,16.51
2022-04-14T03:56:00,sdl,16.42
2022-04-14T03:57:00,sdl,16.33
2022-04-14T03:58:00,sdl,16.27
2022-04-14T03:59:00,sdl,14.05
2022-04-14T04:00:00,sdl,13.97
2022-04-14T04:01:00,sdl,14.09
2022-04-14T04:02:00,sdl,13.98
2022-04-14T04:03:00,sdl,14.08
2022-04-14T04:04:00,sdl,13.94
2022-04-14T04:05:00,sdl,14.35
2022-04-14T04:06:00,sdl,14.37
2022-04-14T04:07:00,sdl,14.02
2022-04-14T04:08:00,sdl,14.05
2022-04-14T04:09:00,sdl,14.46
2022-04-14T04:10:00,sdl,14.06
2022-04-14T04:11:00,sdl,13.87
2022-04-14T04:12:00,sdl,13.76
2022-04-14T04:13:00,sdl,16.14
2022-04-14T04:14:00,sdl,16.14
2022-04-14T04:15:00,sdl,16.13
2022-04-14T04:16:00,sdl,16.08
2022-04-14T04:17:00,sdl,16.52
2022-04-14T04:18:00,sdl,16.05
2022-04-14T04:19:00,sdl,16.10
2022-04-14T04:20:00,sdl,17.28
2022-04-14T04:21:00,sdl,16.11
2022-04-14T04:22:00,sdl,16.13
2022-04-14T04:23:00,sdl,16.25
2022-04-14T04:24:00,sdl,16.35
2022-04-14T04:25:00,sdl,16.29
2022-04-14T04:26:00,sdl,16.34
2022-04-14T04:27:00,sdl,16.35
2022-04-14T04:28:00,sdl,14.10
2022-04-14T04:29:00,sdl,13.98
2022-04-14T04:30:00,sdl,13.85
2022-04-14T04:31:00,sdl,13.90
2022-04-14T04:32:00,sdl,14.38
2022-04-14T04:33:00,sdl,13.88
2022-04-14T04:34:00,sdl,13.92
2022-04-14T04:35:00,sdl,14.45
2022-04-14T04:36:00,sdl,15.22
2022-04-14T04:37:00,sdl,14.75
2022-04-14T04:38:00,sdl,14.46
2022-04-14T04:39:00,sdl,14.34
2022-04-14T04:40:00,sdl,14.35
2022-04-14T04:41:00,sdl,14.33
2022-04-14T04:42:00,sdl,14.45
2022-04-14T04:43:00,sdl,14.49
2022-04-14T04:44:00,sdl,14.51
2022-04-14T04:45:00,sdl,14.17
2022-04-14T04:46:00,sdl,14.06
2022-04-14T04:47:00,sdl,14.01
2022-04-14T04:48:00,sdl,14.04
2022-04-14T04:49:00,sdl,13.97
2022-04-14T04:50:00,sdl,14.03
2022-04-14T04:51:00,sdl,14.03
2022-04-14T04:52:00,sdl,13.93
2022-04-14T04:53:00,sdl,13.96
2022-04-14T04:54:00,sdl,13.96
2022-04-14T04:55:00,sdl,14.53
2022-04-14T04:56:00,sdl,13.98
2022-04-14T04:57:00,sdl,14.16
2022-04-14T04:58:00,sdl,14.10
2022-04-14T04:59:00,sdl,14.08
2022-04-14T05:00:00,sdl,14.54
2022-04-14T05:01:00,sdl,14.44
2022-04-14T05:02:00,sdl,14.47
2022-04-14T05:03:00,sdl,14.41
2022-04-14T05:04:00,sdl,14.51
2022-04-14T05:05:00,sdl,14.45
2022-04-14T05:06:00,sdl,14.40
2022-04-14T05:07:00,sdl,14.41
2022-04-14T05:08:00,sdl,17.04
2022-04-14T05:09:00,sdl,17.04
2022-04-14T05:10:00,sdl,16.69
2022-04-14T05:11:00,sdl,16.64
2022-04-14T05:12:00,sdl,16.64
2022-04-14T05:13:00,sdl,16.65
2022-04-14T05:14:00,sdl,16.66
2022-04-14T05:15:00,sdl,16.67
2022-04-14T05:16:00,sdl,16.69
2022-04-14T05:17:00,sdl,16.64
2022-04-14T05:18:00,sdl,16.62
2022-04-14T05:19:00,sdl,17.23
2022-04-14T05:20:00,sdl,16.66
2022-04-14T05:21:00,sdl,16.64
2022-04-14T05:22:00,sdl,16.62
2022-04-14T05:23:00,sdl,16.70
2022-04-14T05:24:00,sdl,16.61
2022-04-14T05:25:00,sdl,14.66
2022-04-14T05:26:00,sdl,14.30
2022-04-14T05:27:00,sdl,14.52
2022-04-14T05:28:00,sdl,14.68
2022-04-14T05:29:00,sdl,14.71
2022-04-14T05:30:00,sdl,14.40
2022-04-14T05:31:00,sdl,14.40
2022-04-14T05:32:00,sdl,14.47
2022-04-14T05:33:00,sdl,14.54
2022-04-14T05:34:00,sdl,14.43
2022-04-14T05:35:00,sdl,14.41
2022-04-14T05:36:00,sdl,14.39
2022-04-14T05:37:00,sdl,14.44
2022-04-14T05:38:00,sdl,14.41
2022-04-14T05:39:00,sdl,14.83
2022-04-14T05:40:00,sdl,14.74
2022-04-14T05:41:00,sdl,14.36
2022-04-14T05:42:00,sdl,14.32
2022-04-14T05:43:00,sdl,14.87
2022-04-14T05:44:00,sdl,14.60
2022-04-14T05:45:00,sdl,14.26
2022-04-14T05:46:00,sdl,14.26
2022-04-14T05:47:00,sdl,14.25
2022-04-14T05:48:00,sdl,14.28
2022-04-14T05:49:00,sdl,14.27
2022-04-14T05:50:00,sdl,14.17
2022-04-14T05:51:00,sdl,14.13
2022-04-14T05:52:00,sdl,14.17
2022-04-14T05:53:00,sdl,14.20
2022-04-14T05:54:00,sdl,14.22
2022-04-14T05:55:00,sdl,14.19
2022-04-14T05:56:00,sdl,14.51
2022-04-14T05:57:00,sdl,14.77
2022-04-14T05:58:00,sdl,14.08
2022-04-14T05:59:00,sdl,13.78
2022-04-14T06:00:00,sdl,13.89
2022-04-14T06:01:00,sdl,14.29
2022-04-14T06:02:00,sdl,14.05
2022-04-14T06:03:00,sdl,13.98
2022-04-14T06:04:00,sdl,14.03
2022-04-14T06:05:00,sdl,13.97
2022-04-14T06:06:00,sdl,14.01
2022-04-14T06:07:00,sdl,14.58
2022-04-14T06:08:00,sdl,14.19
2022-04-14T06:09:00,sdl,16.34
2022-04-14T06:10:00,sdl,16.91
2022-04-14T06:11:00,sdl,16.88
2022-04-14T06:12:00,sdl,16.86
2022-04-14T06:13:00,sdl,16.48
2022-04-14T06:14:00,sdl,16.43
2022-04-14T06:15:00,sdl,16.27
2022-04-14T06:16:00,sdl,16.29
2022-04-14T06:17:00,sdl,16.15
2022-04-14T06:18:00,sdl,16.19
2022-04-14T06:19:00,sdl,16.69
2022-04-14T06:20:00,sdl,14.04
2022-04-14T06:21:00,sdl,13.94
2022-04-14T06:22:00,sdl,14.02
2022-04-14T06:23:00,sdl,14.00
2022-04-14T06:24:00,sdl,13.96
2022-04-14T06:25:00,sdl,14.20
2022-04-14T06:26:00,sdl,13.97
2022-04-14T06:27:00,sdl,14.01
2022-04-14T06:28:00,sdl,14.08
2022-04-14T06:29:00,sdl,14.41
2022-04-14T06:30:00,sdl,14.07
2022-04-14T06:31:00,sdl,14.25
2022-04-14T06:32:00,sdl,13.94
2022-04-14T06:33:00,sdl,13.84
2022-04-14T06:34:00,sdl,16.12
2022-04-14T06:35:00,sdl,16.05
2022-04-14T06:36:00,sdl,15.93
2022-04-14T06:37:00,sdl,15.96
2022-04-14T06:38:00,sdl,16.44
2022-04-14T06:39:00,sdl,15.93
2022-04-14T06:40:00,sdl,15.93
2022-04-14T06:41:00,sdl,16.09
2022-04-14T06:42:00,sdl,16.09
2022-04-14T06:43:00,sdl,16.14
2022-04-14T06:44:00,sdl,16.26
2022-04-14T06:45:00,sdl,16.76
2022-04-14T06:46:00,sdl,16.71
2022-04-14T06:47:00,sdl,16.97
2022-04-14T06:48:00,sdl,14.81
2022-04-14T06:49:00,sdl,14.87
2022-04-14T06:50:00,sdl,14.34
2022-04-14T06:51:00,sdl,14.27
2022-04-14T06:52:00,sdl,14.18
2022-04-14T06:53:00,sdl,14.71
2022-04-14T06:54:00,sdl,14.14
2022-04-14T06:55:00,sdl,14.24
2022-04-14T06:56:00,sdl,14.22
2022-04-14T06:57:00,sdl,14.31
2022-04-14T06:58:00,sdl,14.32
2022-04-14T06:59:00,sdl,14.29
2022-04-14T07:00:00,sdl,14.27
2022-04-14T07:01:00,sdl,14.26
2022-04-14T07:02:00,sdl,14.31
2022-04-14T07:03:00,sdl,14.26
2022-04-14T07:04:00,sdl,14.33
2022-04-14T07:05:00,sdl,14.34
2022-04-14T07:06:00,sdl,14.31
2022-04-14T07:07:00,sdl,14.28
2022-04-14T07:08:00,sdl,14.13
2022-04-14T07:09:00,sdl,14.28
2022-04-14T07:10:00,sdl,14.24
2022-04-14T07:11:00,sdl,14.24
2022-04-14T07:12:00,sdl,14.21
2022-04-14T07:13:00,sdl,14.22
2022-04-14T07:14:00,sdl,14.21
2022-04-14T07:15:00,sdl,14.11
2022-04-14T07:16:00,sdl,14.64
2022-04-14T07:17:00,sdl,14.14
2022-04-14T07:18:00,sdl,14.29
2022-04-14T07:19:00,sdl,14.71
2022-04-14T07:20:00,sdl,14.74
2022-04-14T07:21:00,sdl,14.32
2022-04-14T07:22:00,sdl,14.23
2022-04-14T07:23:00,sdl,14.26
2022-04-14T07:24:00,sdl,14.15
2022-04-14T07:25:00,sdl,14.06
2022-04-14T07:26:00,sdl,16.27
2022-04-14T07:27:00,sdl,16.30
2022-04-14T07:28:00,sdl,16.28
2022-04-14T07:29:00,sdl,16.28
2022-04-14T07:30:00,sdl,16.58
2022-04-14T07:31:00,sdl,15.79
2022-04-14T07:32:00,sdl,15.69
2022-04-14T07:33:00,sdl,15.75
2022-04-14T07:34:00,sdl,15.73
2022-04-14T07:35:00,sdl,15.83
2022-04-14T07:36:00,sdl,15.83
2022-04-14T07:37:00,sdl,15.82
2022-04-14T07:38:00,sdl,15.86
2022-04-14T07:39:00,sdl,16.33
2022-04-14T07:40:00,sdl,15.71
2022-04-14T07:41:00,sdl,15.80
2022-04-14T07:42:00,sdl,13.55
2022-04-14T07:43:00,sdl,13.50
2022-04-14T07:44:00,sdl,13.63
2022-04-14T07:45:00,sdl,13.68
2022-04-14T07:46:00,sdl,13.75
2022-04-14T07:47:00,sdl,13.71
2022-04-14T07:48:00,sdl,13.63
2022-04-14T07:49:00,sdl,14.01
2022-04-14T07:50:00,sdl,14.12
2022-04-14T07:51:00,sdl,13.66
2022-04-14T07:52:00,sdl,13.78
2022-04-14T07:53:00,sdl,13.83
2022-04-14T07:54:00,sdl,13.87
2022-04-14T07:55:00,sdl,13.82
2022-04-14T07:56:00,sdl,13.72
2022-04-14T07:57:00,sdl,13.75
2022-04-14T07:58:00,sdl,13.83
2022-04-14T07:59:00,sdl,13.88
2022-04-14T08:00:00,sdl,13.73
2022-04-14T08:01:00,sdl,13.76
2022-04-14T08:02:00,sdl,14.21
2022-04-14T08:03:00,sdl,13.73
2022-04-14T08:04:00,sdl,13.68
2022-04-14T08:05:00,sdl,13.78
2022-04-14T08:06:00,sdl,13.77
2022-04-14T08:07:00,sdl,13.76
2022-04-14T08:08:00,sdl,13.78
2022-04-14T08:09:00,sdl,13.70
2022-04-14T08:10:00,sdl,13.77
2022-04-14T08:11:00,sdl,13.66
2022-04-14T08:12:00,sdl,13.66
2022-04-14T08:13:00,sdl,13.73
2022-04-14T08:14:00,sdl,13.68
2022-04-14T08:15:00,sdl,13.68
2022-04-14T08:16:00,sdl,13.66
2022-04-14T08:17:00,sdl,14.14
2022-04-14T08:18:00,sdl,15.63
2022-04-14T08:19:00,sdl,14.58
2022-04-14T08:20:00,sdl,16.42
2022-04-14T08:21:00,sdl,16.39
2022-04-14T08:22:00,sdl,16.49
2022-04-14T08:23:00,sdl,16.48
2022-04-14T08:24:00,sdl,16.57
2022-04-14T08:25:00,sdl,17.06
2022-04-14T08:26:00,sdl,16.45
2022-04-14T08:27:00,sdl,17.17
2022-04-14T08:28:00,sdl,16.50
2022-04-14T08:29:00,sdl,16.49
2022-04-14T08:30:00,sdl,14.84
2022-04-14T08:31:00,sdl,14.46
2022-04-14T08:32:00,sdl,14.45
2022-04-14T08:33:00,sdl,15.07
2022-04-14T08:34:00,sdl,14.34
2022-04-14T08:35:00,sdl,14.29
2022-04-14T08:36:00,sdl,14.30
2022-04-14T08:37:00,sdl,14.28
2022-04-14T08:38:00,sdl,14.37
2022-04-14T08:39:00,sdl,14.42
2022-04-14T08:40:00,sdl,14.44
2022-04-14T08:41:00,sdl,14.72
2022-04-14T08:42:00,sdl,14.82
2022-04-14T08:43:00,sdl,14.81
2022-04-14T08:44:00,sdl,17.05
2022-04-14T08:45:00,sdl,19.17
2022-04-14T08:46:00,sdl,18.34
2022-04-14T08:47:00,sdl,18.89
2022-04-14T08:48:00,sdl,19.56
2022-04-14T08:49:00,sdl,19.14
2022-04-14T08:50:00,sdl,18.63
2022-04-14T08:51:00,sdl,18.81
2022-04-14T08:52:00,sdl,18.88
2022-04-14T08:53:00,sdl,18.88
2022-04-14T08:54:00,sdl,19.31
2022-04-14T08:55:00,sdl,19.59
2022-04-14T08:56:00,sdl,18.92
2022-04-14T08:57:00,sdl,18.94
2022-04-14T08:58:00,sdl,18.99
2022-04-14T08:59:00,sdl,18.97
2022-04-14T09:00:00,sdl,16.74
2022-04-14T09:01:00,sdl,16.55
2022-04-14T09:02:00,sdl,16.46
2022-04-14T09:03:00,sdl,16.52
2022-04-14T09:04:00,sdl,16.42
2022-04-14T09:05:00,sdl,15.77
2022-04-14T09:06:00,sdl,16.38
2022-04-14T09:07:00,sdl,16.19
2022-04-14T09:08:00,sdl,16.12
2022-04-14T09:09:00,sdl,16.00
2022-04-14T09:10:00,sdl,15.99
2022-04-14T09:11:00,sdl,16.36
2022-04-14T09:12:00,sdl,15.93
2022-04-14T09:13:00,sdl,15.58
2022-04-14T09:14:00,sdl,15.78
2022-04-14T09:15:00,sdl,15.78
2022-04-14T09:16:00,sdl,15.72
2022-04-14T09:17:00,sdl,16.08
2022-04-14T09:18:00,sdl,16.74
2022-04-14T09:19:00,sdl,16.48
2022-04-14T09:20:00,sdl,15.02
2022-04-14T09:21:00,sdl,15.11
2022-04-14T09:22:00,sdl,15.14
2022-04-14T09:23:00,sdl,15.19
2022-04-14T09:24:00,sdl,15.60
2022-04-14T09:25:00,sdl,17.04
2022-04-14T09:26:00,sdl,17.02
2022-04-14T09:27:00,sdl,16.97
2022-04-14T09:28:00,sdl,16.66
2022-04-14T09:29:00,sdl,16.82
2022-04-14T09:30:00,sdl,16.89
2022-04-14T09:31:00,sdl,16.68
2022-04-14T09:32:00,sdl,16.88
2022-04-14T09:33:00,sdl,19.16
2022-04-14T09:34:00,sdl,19.07
2022-04-14T09:35:00,sdl,16.88
2022-04-14T09:36:00,sdl,16.82
2022-04-14T09:37:00,sdl,16.81
2022-04-14T09:38:00,sdl,17.49
2022-04-14T09:39:00,sdl,17.49
2022-04-14T09:40:00,sdl,17.48
2022-04-14T09:41:00,sdl,19.76
2022-04-14T09:42:00,sdl,19.45
2022-04-14T09:43:00,sdl,19.34
2022-04-14T09:44:00,sdl,19.12
2022-04-14T09:45:00,sdl,20.05
2022-04-14T09:46:00,sdl,20.44
2022-04-14T09:47:00,sdl,20.87
2022-04-14T09:48:00,sdl,20.88
2022-04-14T09:49:00,sdl,20.48
2022-04-14T09:50:00,sdl,19.86
2022-04-14T09:51:00,sdl,19.82
2022-04-14T09:52:00,sdl,19.91
2022-04-14T09:53:00,sdl,20.04
2022-04-14T09:54:00,sdl,20.03
2022-04-14T09:55:00,sdl,20.11
2022-04-14T09:56:00,sdl,20.61
2022-04-14T09:57:00,sdl,18.98
2022-04-14T09:58:00,sdl,18.41
2022-04-14T09:59:00,sdl,18.53
2022-04-14T10:00:00,sdl,18.48
2022-04-14T10:01:00,sdl,18.64
2022-04-14T10:02:00,sdl,18.60
2022-04-14T10:03:00,sdl,18.53
2022-04-14T10:04:00,sdl,18.52
2022-04-14T10:05:00,sdl,32.56
2022-04-14T10:06:00,sdl,18.55
2022-04-14T10:07:00,sdl,19.02
2022-04-14T10:08:00,sdl,18.42
2022-04-14T10:09:00,sdl,18.44
2022-04-14T10:10:00,sdl,18.41
2022-04-14T10:11:00,sdl,18.37
2022-04-14T10:12:00,sdl,19.60
2022-04-14T10:13:00,sdl,18.34
2022-04-14T10:14:00,sdl,18.45
2022-04-14T10:15:00,sdl,20.69
2022-04-14T10:16:00,sdl,20.66
2022-04-14T10:17:00,sdl,20.55
2022-04-14T10:18:00,sdl,20.52
2022-04-14T10:19:00,sdl,21.69
2022-04-14T10:20:00,sdl,20.86
2022-04-14T10:21:00,sdl,20.26
2022-04-14T10:22:00,sdl,20.26
2022-04-14T10:23:00,sdl,23.47
2022-04-14T10:24:00,sdl,22.43
2022-04-14T10:25:00,sdl,20.22
2022-04-14T10:26:00,sdl,17.56
2022-04-14T10:27:00,sdl,18.42
2022-04-14T10:28:00,sdl,18.00
2022-04-14T10:29:00,sdl,18.00
2022-04-14T10:30:00,sdl,17.91
2022-04-14T10:31:00,sdl,17.84
2022-04-14T10:32:00,sdl,17.94
2022-04-14T10:33:00,sdl,17.80
2022-04-14T10:34:00,sdl,18.02
2022-04-14T10:35:00,sdl,17.64
2022-04-14T10:36:00,sdl,17.54
2022-04-14T10:37:00,sdl,17.55
2022-04-14T10:38:00,sdl,17.48
2022-04-14T10:39:00,sdl,17.38
2022-04-14T10:40:00,sdl,17.40
2022-04-14T10:41:00,sdl,17.31
2022-04-14T10:42:00,sdl,17.63
2022-04-14T10:43:00,sdl,17.28
2022-04-14T10:44:00,sdl,18.44
2022-04-14T10:45:00,sdl,17.15
2022-04-14T10:46:00,sdl,17.12
2022-04-14T10:47:00,sdl,17.07
2022-04-14T10:48:00,sdl,17.47
2022-04-14T10:49:00,sdl,18.03
2022-04-14T10:50:00,sdl,18.86
2022-04-14T10:51:00,sdl,18.48
2022-04-14T10:52:00,sdl,18.87
2022-04-14T10:53:00,sdl,19.10
2022-04-14T10:54:00,sdl,21.49
2022-04-14T10:55:00,sdl,21.22
2022-04-14T10:56:00,sdl,21.18
2022-04-14T10:57:00,sdl,21.21
2022-04-14T10:58:00,sdl,21.23
2022-04-14T10:59:00,sdl,21.64
2022-04-14T11:00:00,sdl,22.24
2022-04-14T11:01:00,sdl,22.09
2022-04-14T11:02:00,sdl,22.59
2022-04-14T11:03:00,sdl,22.11
2022-04-14T11:04:00,sdl,20.94
2022-04-14T11:05:00,sdl,20.88
2022-04-14T11:06:00,sdl,20.78
2022-04-14T11:07:00,sdl,21.63
2022-04-14T11:08:00,sdl,21.23
2022-04-14T11:09:00,sdl,21.22
2022-04-14T11:10:00,sdl,21.13
2022-04-14T11:11:00,sdl,21.40
2022-04-14T11:12:00,sdl,21.24
2022-04-14T11:13:00,sdl,19.03
2022-04-14T11:14:00,sdl,20.50
2022-04-14T11:15:00,sdl,20.40
2022-04-14T11:16:00,sdl,20.45
2022-04-14T11:17:00,sdl,21.14
2022-04-14T11:18:00,sdl,20.36
2022-04-14T11:19:00,sdl,19.64
2022-04-14T11:20:00,sdl,19.09
2022-04-14T11:21:00,sdl,19.75
2022-04-14T11:22:00,sdl,20.53
2022-04-14T11:23:00,sdl,18.71
2022-04-14T11:24:00,sdl,20.35
2022-04-14T11:25:00,sdl,19.03
2022-04-14T11:26:00,sdl,20.32
2022-04-14T11:27:00,sdl,18.70
2022-04-14T11:28:00,sdl,18.70
2022-04-14T11:29:00,sdl,18.60
2022-04-14T11:30:00,sdl,18.73
2022-04-14T11:31:00,sdl,19.10
2022-04-14T11:32:00,sdl,19.30
2022-04-14T11:33:00,sdl,19.11
2022-04-14T11:34:00,sdl,19.24
2022-04-14T11:35:00,sdl,18.52
2022-04-14T11:36:00,sdl,20.64
2022-04-14T11:37:00,sdl,20.79
2022-04-14T11:38:00,sdl,21.37
2022-04-14T11:39:00,sdl,21.30
2022-04-14T11:40:00,sdl,21.32
2022-04-14T11:41:00,sdl,21.36
2022-04-14T11:42:00,sdl,20.80
2022-04-14T11:43:00,sdl,20.83
2022-04-14T11:44:00,sdl,21.06
2022-04-14T11:45:00,sdl,20.75
2022-04-14T11:46:00,sdl,20.61
2022-04-14T11:47:00,sdl,18.48
2022-04-14T11:48:00,sdl,18.43
2022-04-14T11:49:00,sdl,18.69
2022-04-14T11:50:00,sdl,19.27
2022-04-14T11:51:00,sdl,18.61
2022-04-14T11:52:00,sdl,18.46
2022-04-14T11:53:00,sdl,18.53
2022-04-14T11:54:00,sdl,18.44
2022-04-14T11:55:00,sdl,18.76
2022-04-14T11:56:00,sdl,18.21
2022-04-14T11:57:00,sdl,18.22
2022-04-14T11:58:00,sdl,20.60
2022-04-14T11:59:00,sdl,21.04
2022-04-14T12:00:00,sdl,20.56
2022-04-14T12:01:00,sdl,21.05
2022-04-14T12:02:00,sdl,20.52
2022-04-14T12:03:00,sdl,20.51
2022-04-14T12:04:00,sdl,20.55
2022-04-14T12:05:00,sdl,20.38
2022-04-14T12:06:00,sdl,20.39
2022-04-14T12:07:00,sdl,20.30
2022-04-14T12:08:00,sdl,20.76
2022-04-14T12:09:00,sdl,20.76
2022-04-14T12:10:00,sdl,20.84
2022-04-14T12:11:00,sdl,20.81
2022-04-14T12:12:00,sdl,20.79
2022-04-14T12:13:00,sdl,21.11
2022-04-14T12:14:00,sdl,21.08
2022-04-14T12:15:00,sdl,21.21
2022-04-14T12:16:00,sdl,21.58
2022-04-14T12:17:00,sdl,21.82
2022-04-14T12:18:00,sdl,22.08
2022-04-14T12:19:00,sdl,22.18
2022-04-14T12:20:00,sdl,19.67
2022-04-14T12:21:00,sdl,19.44
2022-04-14T12:22:00,sdl,19.05
2022-04-14T12:23:00,sdl,18.14
2022-04-14T12:24:00,sdl,18.17
2022-04-14T12:25:00,sdl,17.31
2022-04-14T12:26:00,sdl,17.35
2022-04-14T12:27:00,sdl,18.37
2022-04-14T12:28:00,sdl,18.15
2022-04-14T12:29:00,sdl,18.24
2022-04-14T12:30:00,sdl,18.15
2022-04-14T12:31:00,sdl,18.71
2022-04-14T12:32:00,sdl,18.11
2022-04-14T12:33:00,sdl,18.08
2022-04-14T12:34:00,sdl,16.65
2022-04-14T12:35:00,sdl,16.74
2022-04-14T12:36:00,sdl,16.66
2022-04-14T12:37:00,sdl,18.09
2022-04-14T12:38:00,sdl,16.65
2022-04-14T12:39:00,sdl,16.65
2022-04-14T12:40:00,sdl,16.72
2022-04-14T12:41:00,sdl,16.72
2022-04-14T12:42:00,sdl,17.56
2022-04-14T12:43:00,sdl,17.06
2022-04-14T12:44:00,sdl,18.02
2022-04-14T12:45:00,sdl,17.11
2022-04-14T12:46:00,sdl,17.21
2022-04-14T12:47:00,sdl,18.10
2022-04-14T12:48:00,sdl,18.91
2022-04-14T12:49:00,sdl,18.76
2022-04-14T12:50:00,sdl,18.90
2022-04-14T12:51:00,sdl,18.82
2022-04-14T12:52:00,sdl,18.80
2022-04-14T12:53:00,sdl,18.79
2022-04-14T12:54:00,sdl,18.82
2022-04-14T12:55:00,sdl,18.84
2022-04-14T12:56:00,sdl,18.80
2022-04-14T12:57:00,sdl,19.56
2022-04-14T12:58:00,sdl,18.49
2022-04-14T12:59:00,sdl,18.54
2022-04-14T13:00:00,sdl,18.52
2022-04-14T13:01:00,sdl,19.56
2022-04-14T13:02:00,sdl,18.47
2022-04-14T13:03:00,sdl,19.52
2022-04-14T13:04:00,sdl,18.69
2022-04-14T13:05:00,sdl,18.64
2022-04-14T13:06:00,sdl,17.52
2022-04-14T13:07:00,sdl,16.46
2022-04-14T13:08:00,sdl,17.03
2022-04-14T13:09:00,sdl,17.14
2022-04-14T13:10:00,sdl,16.53
2022-04-14T13:11:00,sdl,16.57
2022-04-14T13:12:00,sdl,17.60
2022-04-14T13:13:00,sdl,16.82
2022-04-14T13:14:00,sdl,16.87
2022-04-14T13:15:00,sdl,16.78
2022-04-14T13:16:00,sdl,17.98
2022-04-14T13:17:00,sdl,18.00
2022-04-14T13:18:00,sdl,18.06
2022-04-14T13:19:00,sdl,20.22